Location: Grange Rosano
(44.4500°N, 6.9667°E)
Time: 19:16:50
(UTC+00:00)

Cosmos 1271 Rocket - Pass Details

Date: 26 May 2022
Orbit: 495 x 539 km, 81.2° (Epoch: 01 July)

Event Time Altitude Azimuth Distance (km) Brightness Sun altitude
Rises 02:25:51 0° 342° (NNW) 2,626 6.7 -13.0°
Reaches altitude 10° 02:28:04 10° 334° (NNW) 1,742 5.7 -12.8°
Maximum altitude 02:31:38 39° 266° (W) 793 3.3 -12.3°
Enters shadow 02:34:10 17° 204° (SSW) 1,359 4.2 -12.0°
